Home > Weather > Tucumán > Past weeks

Flag for Argentina Weather for the Past 2 Weeks in Tucumán, Tucumán, Argentina

Now
75 °F

Partly sunny.


Feels Like: 75 °F
Forecast: 69 / 82 °F
Wind: 9 mph from Northeast

Location: Tucuman Aerodrome

Current Time: Feb 6, 2016 at 9:40:17 AM

Latest Report: Feb 6, 2016 at 9:00 AM


Visibility: 5 mi

Pressure: 30.01 "Hg

Humidity: 89%

Dew point: 72 °F

Location of TucumánLocation

Historic Weather in Tucumán — Graph

°F

Tucumán Temperature Yesterday

Maximum temperature yesterday: 91 °F (at 4:00 PM)
Minimum temperature yesterday: 70 °F (at 7:00 AM)
Average temperature yesterday: 80 °F

High & Low Weather Summary for the Past Weeks

 TemperatureHumidityPressure
High100 °F (Jan 22, 4:00 PM)100% (Jan 29, 11:00 PM)30.18 "Hg (Jan 29, 11:00 PM)
Low61 °F (Jan 24, 3:00 PM)30% (Jan 23, 7:00 PM)29.39 "Hg (Jan 24, 4:00 PM)
Average78 °F73%29.89 "Hg
* Reported Jan 22 8:00 AM — Feb 6 8:00 AM, Tucumán, Weather by CustomWeather, © 2016

Note: Actual official high and low records may vary slightly from our data, if they occured in-between our weather recording intervals... More about our weather records

Advertising

Tucumán Weather History for the Previous 24 Hours

 ConditionsComfort  
Time TempWeatherWind HumidityBarometerVisibility
8:00 AM
Sat, Feb 6
73 °FScattered clouds.7 mph94%29.98 "HgN/A
7:00 AM70 °FPartly sunny.12 mph94%29.98 "HgN/A
6:00 AM72 °FPartly sunny.5 mph94%29.98 "HgN/A
5:00 AM72 °FPassing clouds.7 mph94%29.98 "HgN/A
4:00 AM72 °FOvercast.No wind94%30.01 "HgN/A
3:00 AM72 °FOvercast.5 mph94%30.01 "HgN/A
2:00 AM72 °FOvercast.9 mph94%30.01 "HgN/A
1:00 AM72 °FThundershowers. Overcast.12 mph94%30.01 "Hg3 mi
12:00 AM73 °FThunderstorms. Overcast.7 mph89%30.01 "Hg3 mi
11:00 PM
Fri, Feb 5
75 °FThunderstorms. Passing clouds.7 mph89%29.98 "HgN/A
9:00 PM77 °FThunderstorms. Partly cloudy.12 mph94%29.89 "HgN/A
8:00 PM79 °FThunderstorms. Passing clouds.14 mph84%29.86 "HgN/A
7:00 PM88 °FThunderstorms. Scattered clouds.7 mph66%29.83 "HgN/A
6:00 PM90 °FScattered clouds.9 mph55%29.80 "HgN/A
4:00 PM91 °FScattered clouds.12 mph56%29.80 "HgN/A
3:00 PM90 °FScattered clouds.7 mph59%29.83 "HgN/A
2:00 PM90 °FPassing clouds.7 mph55%29.83 "HgN/A
1:00 PM88 °FSunny.10 mph59%29.83 "Hg10 mi
12:00 PM86 °FSunny.18 mph62%29.86 "Hg10 mi
11:00 AM82 °FPassing clouds.16 mph66%29.89 "HgN/A
10:00 AM81 °FPassing clouds.10 mph70%29.92 "HgN/A
9:00 AM75 °FScattered clouds.9 mph83%29.92 "HgN/A
Weather by CustomWeather, © 2016

See weather overviewHow to use our weather pages